TimeNZDT,TemperatureF,Dew PointF,Humidity,Sea Level PressureIn,VisibilityMPH,Wind Direction,Wind SpeedMPH,Gust SpeedMPH,PrecipitationIn,Events,Conditions,WindDirDegrees,DateUTC
12:50 AM,-32.8,-9999,N/A,28.78,6.2,North,10.4,-,N/A,,Ice Crystals,10,2012-11-19 11:50:00
1:00 AM,-33,,,,7,North,10.4,,,Snow,Snow,10,2012-11-19 12:00:00
1:50 AM,-32.8,-9999,N/A,28.79,6.2,North,11.5,17.3,N/A,,Scattered Clouds,10,2012-11-19 12:50:00
2:50 AM,-32.8,-9999,N/A,28.79,6.2,NNE,10.4,-,N/A,,Scattered Clouds,20,2012-11-19 13:50:00
3:50 AM,-31.0,-9999,N/A,28.80,6.2,NNE,12.7,-,N/A,,Partly Cloudy,20,2012-11-19 14:50:00
4:50 AM,-31.0,-9999,N/A,28.80,6.2,NNE,12.7,-,N/A,,Partly Cloudy,20,2012-11-19 15:50:00
5:50 AM,-31.0,-9999,N/A,28.81,6.2,NNE,12.7,-,N/A,,Partly Cloudy,20,2012-11-19 16:50:00
6:50 AM,-31.0,-9999,N/A,28.82,6.2,NNE,12.7,-,N/A,,Scattered Clouds,20,2012-11-19 17:50:00
7:00 AM,-32,,,,7,NNE,12.7,,,,Partly Cloudy,20,2012-11-19 18:00:00
7:50 AM,-31.0,-9999,N/A,28.83,6.2,NNE,12.7,-,N/A,,Partly Cloudy,20,2012-11-19 18:50:00
8:50 AM,-31.0,-9999,N/A,28.85,6.2,North,11.5,-,N/A,,Scattered Clouds,10,2012-11-19 19:50:00
9:50 AM,-31.0,-9999,N/A,28.85,6.2,North,12.7,-,N/A,,Partly Cloudy,10,2012-11-19 20:50:00
10:50 AM,-31.0,-9999,N/A,28.86,6.2,NNE,9.2,-,N/A,,Scattered Clouds,20,2012-11-19 21:50:00
11:50 AM,-32.8,-9999,N/A,28.85,6.2,NNE,8.1,-,N/A,,Partly Cloudy,30,2012-11-19 22:50:00
12:50 PM,-32.8,-9999,N/A,28.87,6.2,NNE,10.4,-,N/A,,Partly Cloudy,20,2012-11-19 23:50:00
1:00 PM,-33,,,,7,NNE,10.4,,,,Scattered Clouds,20,2012-11-20 00:00:00
1:50 PM,-32.8,-9999,N/A,28.87,6.2,NNE,8.1,-,N/A,,Partly Cloudy,30,2012-11-20 00:50:00
2:50 PM,-32.8,-9999,N/A,28.87,6.2,NNE,10.4,-,N/A,,Ice Crystals,30,2012-11-20 01:50:00
3:18 PM,-32.8,-9999,N/A,28.87,6.2,NNE,10.4,-,N/A,,Ice Crystals,20,2012-11-20 02:18:00
3:50 PM,-32.8,-9999,N/A,28.87,5.0,NNE,11.5,-,N/A,,Ice Crystals,20,2012-11-20 02:50:00
4:50 PM,-32.8,-9999,N/A,28.87,3.7,North,12.7,-,N/A,,Ice Crystals,10,2012-11-20 03:50:00
5:25 PM,-32.8,-9999,N/A,28.87,2.5,North,13.8,-,N/A,,Ice Crystals,10,2012-11-20 04:25:00
5:50 PM,-32.8,-9999,N/A,28.88,-9999.0,North,13.8,-,N/A,Snow,Ice Crystals,10,2012-11-20 04:50:00
6:30 PM,-32.8,-9999,N/A,28.88,-9999.0,North,15.0,-,N/A,Snow,Ice Crystals,10,2012-11-20 05:30:00
6:50 PM,-32.8,-9999,N/A,28.88,-9999.0,NNE,13.8,-,N/A,Snow,Ice Crystals,20,2012-11-20 05:50:00
7:00 PM,-33,,,,3,NNE,13.8,,,Snow,Snow,20,2012-11-20 06:00:00
7:12 PM,-31.0,-9999,N/A,28.89,2.5,NNE,12.7,-,N/A,Snow,Ice Crystals,20,2012-11-20 06:12:00
7:50 PM,-29.2,-9999,N/A,28.89,1.5,North,17.3,-,N/A,Snow,Ice Crystals,360,2012-11-20 06:50:00
8:30 PM,-31.0,-9999,N/A,28.89,1.7,North,15.0,-,N/A,Snow,Ice Crystals,360,2012-11-20 07:30:00
8:50 PM,-29.2,-9999,N/A,28.89,-9999.0,North,15.0,-,N/A,Snow,Ice Crystals,350,2012-11-20 07:50:00
9:10 PM,-27.4,-9999,N/A,28.89,1.2,NNW,13.8,-,N/A,Snow,Ice Crystals,340,2012-11-20 08:10:00
9:50 PM,-25.6,-9999,N/A,28.90,2.5,North,15.0,-,N/A,,Ice Crystals,360,2012-11-20 08:50:00
10:50 PM,-27.4,-9999,N/A,28.90,6.2,North,12.7,-,N/A,,Ice Crystals,350,2012-11-20 09:50:00
11:50 PM,-29.2,-9999,N/A,28.92,-9999.0,North,18.4,-,N/A,Snow,Blowing Snow,10,2012-11-20 10:50:00